Wind_Speed
8 3 1 3 3 4 4 5 1 3 4 4 3 4 5 4 1 3 8 9 25 25 22 20 19 18 18 18 17 17 17 16 16 15 14 12 11 10 9 8 8 8 9 9 9 8 9 9 9
7 5 3 2 3 2 4 4 6 5 8 9 8 5 8 4 4 11 13 21 25 26 23 21 19 19 18 18 17 17 16 15 15 13 12 11 10 9 8 8 7 8 8 8 8 9 10 10 10
5 4 3 4 2 3 3 1 10 12 12 4 6 4 4 3 5 9 16 25 25 24 22 21 19 19 18 16 16 15 15 14 14 13 11 9 9 8 8 8 7 7 8 8 9 10 10 10 10
7 4 4 3 6 6 3 2 14 11 6 8 6 9 5 5 4 14 29 28 27 24 22 21 19 18 17 16 16 15 15 14 13 12 10 10 9 8 8 8 8 8 9 8 10 10 10 9 9
3 3 4 1 4 4 5 3 8 5 6 14 1 6 1 3 17 31 28 28 29 25 22 20 17 17 17 17 16 15 14 13 12 12 11 11 9 9 9 8 9 8 8 8 10 10 10 10 10
3 2 3 1 5 6 6 6 4 4 6 13 9 6 2 14 28 26 29 28 26 26 22 19 17 16 16 16 15 15 14 13 13 12 11 11 10 11 9 8 9 8 7 9 11 10 11 11 10
4 4 3 4 2 6 6 4 4 10 6 3 10 5 4 6 22 29 29 27 25 23 22 19 17 16 16 16 16 15 14 13 13 13 12 12 12 10 10 10 10 9 9 10 11 11 12 13 12
4 2 2 1 6 1 7 2 2 3 2 7 8 7 7 10 26 30 28 26 25 23 21 19 17 16 16 16 15 14 14 13 13 12 10 11 9 8 8 8 7 6 7 7 8 9 9 10 11
3 4 3 4 8 6 6 6 0 2 7 2 1 5 17 30 31 30 26 24 23 22 22 20 18 17 17 16 16 15 13 13 11 10 8 7 6 5 4 4 3 2 4 3 4 4 5 7 8
3 4 8 9 7 16 6 11 8 4 1 6 8 12 27 28 28 23 20 21 24 24 24 22 20 19 18 18 17 15 13 12 9 8 6 5 5 3 2 1 1 3 3 5 6 7 8 9 10
5 5 5 7 8 7 8 6 4 11 2 8 15 16 18 23 20 21 22 30 34 29 25 24 20 18 17 17 17 16 14 11 10 8 6 5 5 6 5 3 3 5 7 9 10 10 8 10 13
2 3 4 3 8 7 9 7 8 2 9 11 21 22 19 14 18 21 23 25 29 29 27 23 22 20 18 16 17 15 15 13 11 8 7 7 7 6 5 3 2 5 8 9 9 10 12 14 16
5 4 5 5 8 6 7 5 8 6 8 10 16 19 19 16 22 28 34 32 32 31 30 26 24 21 18 17 16 16 16 15 12 11 9 8 8 7 5 3 2 6 8 9 9 11 13 15 17
4 4 4 4 5 4 6 2 3 3 8 13 17 17 15 17 23 21 20 29 33 32 32 29 26 21 17 16 13 13 14 13 14 13 12 9 10 8 6 6 5 6 8 10 11 12 14 16 19
5 6 4 3 1 2 6 4 4 6 12 18 17 16 13 11 5 9 18 23 30 30 34 30 27 19 12 11 8 8 9 9 11 11 11 9 9 7 6 5 4 6 8 11 13 14 16 18 19
4 5 3 3 3 3 4 6 2 9 15 16 11 3 7 9 7 1 8 22 28 29 33 28 25 17 6 5 4 2 6 5 6 10 8 6 5 3 2 3 6 8 11 14 16 17 19 19 21
6 3 2 4 4 2 3 4 1 8 11 7 7 7 9 7 15 14 7 14 21 28 31 22 19 10 3 3 6 9 8 7 8 5 5 8 7 5 4 8 11 13 14 15 16 18 19 22 25
3 2 2 5 3 4 2 3 6 6 9 9 8 8 10 10 8 15 21 22 22 24 23 15 5 9 5 11 17 15 18 19 16 14 11 8 9 10 11 13 15 16 17 18 19 20 21 22 19
3 1 3 1 3 5 5 7 8 7 13 10 8 10 11 12 8 20 29 33 32 22 15 16 14 14 10 12 11 15 20 17 14 12 9 9 10 13 15 14 14 16 19 20 20 22 23 21 21
6 6 2 1 5 7 6 11 9 8 6 7 11 10 9 8 9 16 27 28 26 24 21 19 19 16 15 16 15 12 11 10 7 6 7 9 9 7 9 11 14 19 22 21 18 16 15 15 14
5 4 2 3 5 7 6 6 7 6 7 7 7 5 6 10 11 8 17 23 22 21 20 18 16 14 11 9 8 6 4 3 1 1 3 4 6 8 12 16 19 18 16 15 14 13 12 12 13
3 1 3 3 4 4 3 2 0 1 6 5 5 5 6 7 6 9 14 18 20 18 17 16 15 12 10 7 3 2 4 5 3 5 3 4 8 12 15 16 14 14 14 14 13 10 9 9 10
3 2 2 2 3 4 2 5 3 5 3 4 4 5 7 8 7 7 14 19 18 16 14 14 13 11 10 7 6 6 6 5 5 2 2 7 11 13 12 10 10 10 12 11 7 5 4 4 6
1 4 6 4 3 2 3 5 4 7 7 6 5 6 6 5 6 7 13 13 14 13 12 10 10 8 6 5 5 6 7 8 5 0 6 11 12 11 12 13 12 12 10 9 8 4 4 11 9
6 5 2 3 3 4 5 2 4 5 9 6 7 8 7 7 6 6 9 7 8 7 6 7 6 8 6 5 4 4 5 4 0 5 9 11 12 11 11 10 13 11 10 8 7 8 9 9 15
3 4 4 4 3 3 5 3 4 1 9 9 6 7 6 7 5 5 5 6 6 8 6 5 8 6 6 7 6 6 4 2 6 8 11 11 11 10 11 13 10 9 8 8 8 10 11 12 12
1 3 3 6 3 3 2 2 5 3 7 7 9 8 7 3 4 7 10 9 7 5 3 3 4 6 8 7 5 1 6 9 11 13 13 16 15 15 13 10 9 8 9 10 10 11 12 11 11
4 4 3 4 2 1 3 4 4 8 9 9 8 5 6 6 6 7 10 9 7 4 2 2 4 4 3 2 6 9 11 14 15 15 17 18 17 16 14 11 10 9 9 9 12 13 12 13 13
4 2 6 5 3 4 1 5 4 11 10 8 5 5 7 6 7 6 9 7 5 3 3 2 5 3 4 6 9 16 18 15 14 18 19 23 22 16 11 10 9 11 12 9 10 11 11 11 10
2 2 4 4 2 1 3 5 4 4 7 7 7 8 7 7 5 6 6 6 5 6 5 4 4 6 8 10 14 16 13 13 17 21 23 24 21 15 13 14 11 14 13 12 10 11 10 6 7
Wind_Direction
270 210 135 59 54 64 258 257 124 321 58 346 66 87 92 33 348 153 150 150 153 150 149 144 138 132 129 127 126 126 126 124 121 121 119 115 109 101 94 85 77 71 66 61 56 53 44 38 33
271 104 64 114 89 55 266 228 129 135 132 106 68 56 36 63 28 108 122 147 149 150 150 145 141 138 135 134 131 130 129 127 126 123 119 112 103 96 90 85 78 71 68 58 50 46 49 42 41
249 120 106 98 93 200 234 100 121 136 154 44 91 24 40 34 102 123 153 151 151 150 148 144 145 143 139 135 133 133 131 130 127 124 117 111 103 97 92 85 78 72 67 59 57 52 50 50 46
223 31 34 73 263 248 228 197 145 140 81 88 152 75 80 221 148 152 156 155 151 147 146 144 143 139 136 134 134 133 134 129 128 123 118 110 100 93 86 81 75 70 70 63 56 48 40 37 39
10 51 89 111 253 263 118 110 140 118 112 113 131 115 95 19 140 149 152 151 148 144 141 140 138 138 138 138 136 136 133 132 129 121 115 105 104 94 87 77 69 62 55 45 44 35 27 21 20
40 96 75 189 347 352 71 92 130 73 98 107 97 100 39 132 139 151 151 149 143 138 136 137 142 141 138 139 139 140 137 134 128 127 118 113 106 99 85 80 71 60 50 48 47 37 24 20 17
111 89 200 156 5 5 42 163 161 130 119 104 138 100 122 174 152 154 150 144 139 137 139 139 139 140 142 143 140 137 134 139 137 131 121 118 111 108 91 83 74 68 54 68 42 43 38 35 35
105 119 84 170 133 101 318 99 223 122 106 123 145 155 181 188 161 153 147 144 144 144 142 140 143 144 144 139 138 139 142 142 139 135 129 128 116 115 99 91 75 75 67 59 52 47 35 29 23
99 59 198 150 166 128 201 183 165 352 123 23 347 120 150 161 157 150 149 151 153 155 156 151 148 145 147 144 142 141 141 139 142 151 144 142 133 130 131 102 79 53 37 28 20 11 359 356 351
125 177 216 183 187 173 161 145 139 97 83 21 79 80 135 151 153 148 158 161 168 171 171 166 160 154 153 152 149 153 152 152 161 173 182 160 179 171 197 179 245 305 320 310 315 319 321 329 337
202 220 181 173 173 152 145 141 104 129 343 174 147 146 153 154 156 159 173 174 178 180 179 175 171 166 165 162 164 165 170 168 177 182 200 208 220 226 237 248 279 297 323 335 327 326 330 336 339
186 294 228 135 134 125 162 150 123 127 190 165 154 160 159 167 168 176 183 186 187 187 186 183 178 181 180 181 184 181 182 187 195 201 211 220 253 245 250 238 304 327 343 349 355 350 343 341 342
156 197 45 89 93 106 128 140 162 168 152 150 146 162 170 174 182 186 190 191 192 192 190 188 186 188 189 194 198 198 201 200 206 212 218 232 226 234 247 265 310 322 326 328 330 327 330 331 328
154 99 113 88 112 119 116 108 85 38 130 150 166 178 179 184 192 193 187 195 198 195 193 191 192 186 188 185 193 202 209 219 217 217 215 225 227 238 245 252 270 288 303 312 322 329 331 333 332
121 77 30 16 71 116 112 28 178 148 159 164 186 187 186 202 192 213 202 197 200 195 193 193 184 178 179 179 191 199 200 195 213 225 221 232 239 249 249 266 308 330 333 335 333 333 333 328 330
81 56 104 264 152 359 91 244 210 159 156 185 186 100 70 38 43 216 215 212 202 193 191 186 182 175 156 181 170 154 189 197 218 221 232 246 261 284 326 351 359 355 344 340 333 334 331 334 335
14 167 180 335 198 76 94 257 258 172 181 94 74 78 85 67 46 48 98 187 186 187 188 181 170 146 61 139 75 83 83 100 89 118 114 96 91 70 36 29 21 9 358 354 347 337 337 336 333
215 216 212 211 211 65 244 338 19 97 99 106 97 93 91 80 45 64 92 116 135 155 165 151 121 134 143 84 95 88 86 86 89 89 85 74 56 40 24 16 5 355 348 344 339 335 332 332 332
196 153 151 45 18 86 31 27 4 33 103 105 105 104 98 88 72 77 88 98 101 104 105 85 88 104 119 98 87 84 79 76 73 64 52 33 10 354 345 346 342 345 342 336 331 330 332 333 337
62 116 85 104 32 97 84 46 36 33 77 112 117 114 109 101 79 77 89 90 91 99 101 97 95 101 94 93 90 89 85 69 46 26 4 359 355 358 352 346 341 340 337 338 343 345 338 332 341
32 85 29 111 43 39 94 38 20 32 72 81 66 99 92 114 107 88 103 113 116 116 116 113 111 106 96 86 81 81 104 124 342 351 71 43 14 3 357 353 349 348 354 359 355 348 345 337 339
70 315 51 49 85 178 79 194 290 54 66 82 105 103 119 121 127 147 146 134 133 134 136 137 136 133 130 132 151 216 228 211 177 166 99 27 4 350 348 351 357 358 4 352 347 337 334 339 337
182 151 163 135 97 84 354 95 253 117 135 173 160 162 160 166 167 153 156 144 141 138 140 149 148 150 159 172 179 181 180 178 161 127 358 348 340 343 353 355 352 346 343 343 327 318 318 346 322
142 90 45 48 84 56 280 130 225 191 183 174 182 197 178 221 161 174 147 144 138 132 131 135 143 150 167 170 159 165 159 155 161 323 332 324 321 328 331 328 326 324 328 330 326 308 310 322 317
67 71 8 16 13 212 328 68 226 230 162 172 166 187 201 193 188 205 150 151 127 125 125 154 164 144 145 141 134 137 140 139 258 293 298 295 292 288 295 301 306 310 318 309 296 300 312 317 318
30 131 147 189 190 249 0 344 284 175 124 149 169 165 181 187 193 147 125 136 113 117 127 150 159 157 165 161 150 143 144 260 287 294 291 281 272 276 283 293 286 290 291 285 288 297 303 303 307
197 52 157 106 15 66 260 345 18 35 128 144 159 167 160 105 100 91 88 94 99 90 103 152 174 165 160 137 126 223 296 297 296 289 293 284 272 265 273 268 267 279 293 292 294 292 293 292 299
119 145 58 11 112 208 276 222 217 207 198 192 192 183 121 117 101 78 85 85 83 89 8 280 225 178 146 318 301 297 299 299 293 280 281 285 280 271 275 269 275 278 272 285 294 294 301 300 297
2 36 54 105 111 155 224 262 215 199 193 194 186 122 119 111 105 92 71 62 61 46 357 215 182 203 250 271 302 304 301 290 286 297 299 302 296 283 283 285 298 298 287 293 282 294 303 300 297
184 123 114 108 214 72 144 275 336 173 172 147 135 134 118 110 97 80 60 29 27 24 27 156 232 261 285 287 303 295 296 296 303 306 307 304 291 284 273 284 273 275 279 268 279 295 303 285 294
Height
786 783 781 780 806 817 822 805 781 788 789 785 787 788 800 803 804 818 807 808 812 816 820 822 823 825 827 827 828 828 830 831 833 834 835 835 836 837 837 838 838 838 838 837 836 838 836 835 834
784 778 781 788 815 832 819 790 793 786 787 783 788 793 798 808 803 806 810 812 815 816 820 823 825 826 828 829 829 830 831 833 834 836 837 837 838 839 839 839 839 838 838 838 837 838 837 837 834
782 776 787 802 818 822 813 785 789 785 781 785 793 797 801 812 808 808 810 813 816 820 823 824 825 826 828 829 830 833 834 835 836 837 838 839 840 840 840 840 840 839 838 840 837 838 838 837 837
781 777 788 805 810 803 794 788 782 787 786 789 796 806 806 813 808 808 812 813 817 821 824 825 827 828 829 831 833 834 836 836 838 838 839 840 840 842 842 841 842 842 840 841 838 838 839 839 838
777 783 804 813 812 792 784 785 782 787 790 786 796 809 815 812 808 810 814 816 818 822 824 827 829 831 831 832 834 835 836 837 838 839 840 841 842 842 843 843 842 844 844 844 839 839 839 839 839
787 788 813 815 804 791 785 785 786 789 790 793 803 808 817 813 811 814 816 818 820 822 826 828 831 832 832 834 834 835 836 837 838 839 839 841 842 843 845 844 843 845 845 845 843 841 841 839 840
790 802 811 810 805 801 789 786 789 790 793 797 794 813 817 816 814 816 819 821 823 826 828 829 831 833 833 834 834 835 836 838 838 838 840 842 843 844 843 846 845 845 847 846 845 844 842 841 841
786 793 800 802 808 806 790 790 789 788 795 789 791 811 820 812 815 818 821 823 824 826 828 830 832 832 834 835 836 836 837 838 839 841 843 843 843 846 845 846 846 847 846 847 846 845 844 843 842
781 808 814 806 798 799 789 795 788 786 791 792 793 796 800 810 817 819 821 824 825 826 829 832 833 834 835 836 837 838 840 840 841 842 843 844 844 844 846 846 846 847 846 847 846 845 844 843 843
793 811 800 790 784 784 785 784 789 796 799 803 799 801 805 812 816 817 820 822 826 827 829 831 832 833 836 837 837 839 841 839 842 842 843 843 845 845 846 846 847 848 847 847 846 845 845 844 843
787 795 779 779 776 777 786 791 789 800 806 799 803 805 808 812 815 816 818 819 819 824 828 829 833 835 836 835 838 836 838 840 842 842 843 843 845 845 846 846 847 848 847 846 846 845 844 844 842
781 775 775 772 776 782 790 787 793 792 794 791 793 798 805 811 812 815 817 820 821 825 827 830 831 834 835 834 835 835 836 837 840 842 842 843 845 846 845 846 846 848 847 846 845 845 844 842 841
781 776 772 772 775 780 782 787 788 790 789 794 798 802 803 808 809 810 811 817 820 823 826 828 829 832 831 832 835 834 835 835 838 840 842 844 845 846 846 846 845 845 845 844 843 842 841 839 838
774 776 779 776 778 778 786 787 783 793 793 798 799 801 803 805 806 810 814 816 817 821 822 825 828 830 832 832 836 836 835 837 837 841 842 843 844 844 844 845 844 843 843 842 840 840 838 837 836
778 789 785 782 780 782 783 795 795 791 794 798 798 799 804 806 813 813 816 817 817 819 822 825 827 831 831 833 837 838 836 837 838 840 842 843 844 844 844 844 843 842 842 841 839 838 836 835 833
788 796 808 788 785 785 789 813 790 795 796 800 801 807 813 815 815 812 812 815 817 819 822 826 830 833 835 837 839 839 837 838 839 841 842 843 843 844 843 844 842 841 840 839 837 835 833 832 830
803 814 804 797 786 788 791 802 793 796 797 809 814 815 816 818 816 815 812 811 816 819 823 827 824 831 833 838 839 838 838 838 839 840 841 843 843 844 844 844 842 841 840 838 837 835 833 829 825
807 805 806 806 793 794 797 801 806 800 808 816 819 818 818 819 821 817 815 814 817 819 823 827 829 830 836 838 837 838 840 840 841 842 844 844 845 845 845 843 842 840 839 838 836 834 831 828 825
793 800 807 799 794 802 814 821 821 815 815 821 823 822 823 824 825 822 819 819 821 826 830 831 833 837 839 839 841 841 842 844 845 846 846 847 847 845 844 843 842 841 840 838 835 831 828 825 823
798 806 806 797 797 808 820 828 825 823 824 824 824 828 827 828 828 826 824 824 826 829 833 835 836 839 841 843 844 845 846 847 848 848 847 846 846 845 844 843 840 838 835 833 831 829 827 825 823
808 808 807 804 804 810 815 833 835 830 828 828 830 831 832 832 834 835 832 831 831 833 836 838 840 842 844 845 845 846 847 847 846 846 847 846 845 844 842 841 839 837 834 833 832 830 828 826 824
810 798 799 804 817 836 816 858 834 834 838 837 836 835 835 835 836 837 836 836 836 838 839 840 841 843 843 844 844 844 844 844 845 845 845 845 844 842 841 840 839 836 834 833 832 830 828 826 825
806 799 804 808 824 828 827 849 843 840 843 840 838 836 835 836 838 836 837 837 838 839 840 841 842 842 842 842 841 842 842 843 843 844 844 844 843 841 839 838 836 834 832 830 828 827 826 825 824
794 805 818 825 831 852 827 840 849 842 835 837 836 836 835 837 835 837 836 838 838 839 840 842 841 840 840 840 840 840 841 842 843 844 844 842 841 839 838 836 834 831 829 827 826 825 824 823 821
805 822 854 855 863 857 829 836 838 827 826 831 836 837 837 836 838 839 835 839 838 838 840 842 842 842 842 841 841 841 842 842 843 842 841 840 838 836 835 833 831 829 827 826 824 823 822 821 819
809 819 855 840 863 855 833 848 836 824 824 828 832 835 837 837 837 835 833 836 838 839 841 842 843 842 842 842 842 842 843 842 840 839 837 835 834 832 831 830 828 827 825 823 821 819 818 817 816
809 829 820 850 863 868 853 837 830 827 830 832 834 834 832 833 835 834 837 839 840 840 842 842 841 841 842 842 842 841 840 840 838 836 834 833 830 827 826 824 823 822 822 822 820 818 816 813 811
807 812 837 853 857 850 851 845 846 836 833 828 826 828 833 837 839 839 840 841 841 842 842 841 841 841 841 841 841 841 839 837 836 834 832 829 827 825 823 822 821 819 817 817 818 815 813 811 809
818 822 833 841 861 867 874 852 826 825 825 827 829 833 837 841 841 842 843 844 843 844 842 841 841 841 841 840 839 838 836 835 834 832 829 827 826 825 822 821 819 819 818 815 812 812 809 808 806
810 817 830 862 847 876 877 854 822 820 822 826 833 836 839 840 843 844 844 845 845 844 842 842 842 841 840 839 838 836 834 833 832 830 828 825 821 821 820 816 814 812 811 811 810 808 805 803 804